カタログに戻る

NIMBUS 2 DEB

運用中SSO
NORAD 42436·DEBRIS·🇺🇸 United States

打ち上げ May 15, 1966 から Vandenberg Space Force Base

Loading…

次のパス (今後24時間)

TLE

最新Source: Space-Track

元期: Sep 12, 2026, 01:08 UTC

1 42436U 66040BP  26255.04768544  .00001384  00000-0  23558-2 0  9994
2 42436 100.2946 107.0088 0051356 331.2650  28.5653 13.46580874551621

AllMySatでNIMBUS 2 DEBをリアルタイム追跡

Download on the App Store